Tracking 25612 objects as of 19-May-2022
HD Live streaming from Space Station
objects crossing your sky now

SL-14 DEB

Track SL-14 DEB now!
10-day predictions


NORAD ID: 45305
Int'l Code: 1991-056AT
Perigee: 1,148.7 km
Apogee: 1,204.7 km
Inclination: 82.6 °
Period: 108.8 minutes
Semi major axis: 7547 km
RCS: Unknown
Launch date: August 15, 1991
Source: Commonwealth of Independent States (former USSR) (CIS)
Launch site: PLESETSK MISSILE AND SPACE COMPLEX (PKMTR)

Note: This is SATELLITE DEBRIS
aabbcc
Your satellite tracking list
Your tracking list is empty




NASA's NSSDC Master Catalog

Two Line Element Set (TLE):
1 45305U 91056AT  22138.87055447  .00002899  00000-0  67400-2 0  9991
2 45305  82.5674 106.8257 0037051  96.2207 264.3142 13.23977155107599
Source of the keplerian elements: AFSPC